Miscellaneous Local Product
Issued by NWS Hastings, NE

Home | Current Version | Previous Version | Text Only | Print | Product List | Glossary On
Versions: 1 2 3 4 5 6 7 8 9 10 11 12 13 14 15 16 17 18 19 20 21 22 23 24 25 26 27 28 29 30 31 32 33 34 35 36 37 38 39 40 41 42 43 44 45 46 47 48 49 50
000
AXUS43 KGID 280102
MISGRI

GID CWA HOURLY WEATHER ROUNDUP
NATIONAL WEATHER SERVICE HASTINGS NE
800 PM CDT THU AUG 27 2015

NOTE: "FAIR" INDICATES FEW OR NO CLOUDS BELOW 12,000 FEET WITH NO
SIGNIFICANT WEATHER AND/OR OBSTRUCTIONS TO VISIBILITY.

...SOUTH CENTRAL NEBRASKA...

CITY           SKY/WX    TMP DP  RH WIND       PRES   REMARKS
GRAND ISLAND   MOCLDY    78  67  68 S21G29    29.82F
HASTINGS       PTCLDY    78  66  66 S20G30    29.83S
KEARNEY        MOCLDY    79  64  61 S18       29.81R
ORD            MOCLDY    76  70  82 E8        29.81F
YORK           MOCLDY    79  64  61 S16G24    29.84F
AURORA         MOCLDY    78  65  62 S17G24    29.83S
LEXINGTON      PTCLDY    82  71  69 N16       29.81R
HOLDREGE       PTCLDY    78  66  65 SE13G24   29.83R
HEBRON         CLOUDY    76  64  65 S13       29.88R

...NEBRASKA PANHANDLE...

CITY           SKY/WX    TMP DP  RH WIND       PRES   REMARKS
CHADRON        CLEAR     74  57  55 E6        29.99F
ALLIANCE       PTCLDY    72  56  57 N9        30.02F
SCOTTSBLUFF    PTCLDY    76  56  49 N8        30.03F
SIDNEY         PTCLDY    74  55  51 N12       30.04F

...WESTERN AND NORTH CENTRAL NEBRASKA...

CITY           SKY/WX    TMP DP  RH WIND       PRES   REMARKS
VALENTINE      NOT AVBL
AINSWORTH      MOCLDY    75  68  79 N6        29.89F
ONEILL         CLOUDY    76  72  88 NE9       29.88F
BROKEN BOW     TSTM      72  67  84 E12G22    29.85S
IMPERIAL       CLOUDY    81  61  50 N15       29.90R
NORTH PLATTE   CLEAR     78  66  66 N14G22    29.86R
MCCOOK         PTCLDY    86  57  37 W8        29.82R

...EASTERN NEBRASKA...

CITY           SKY/WX    TMP DP  RH WIND       PRES   REMARKS
NORFOLK        CLOUDY    78  66  66 E8        29.86S
SO SIOUX CITY  CLOUDY    74  67  78 E12       29.90F
TEKAMAH        MOCLDY    77  68  73 SE10      29.89F
COLUMBUS       CLOUDY    75  64  69 E6        29.85S
ALBION         LGT RAIN  76  67  74 SE10      29.83F
OMAHA EPPLEY   MOCLDY    77  67  71 SE12      29.91R
OFFUTT AFB     CLOUDY    74  67  78 E10       29.90S
MILLARD        CLOUDY    77  67  71 SE8       29.89S
LINCOLN        CLOUDY    78  67  68 SE13      29.87F
NEBRASKA CITY  CLOUDY    74  64  69 SE8       29.90F
BEATRICE       LGT RAIN  73  67  81 S13       29.89F
FALLS CITY     CLOUDY    74  66  76 SE6       29.90F

...NORTHERN KANSAS...

CITY           SKY/WX    TMP DP  RH WIND       PRES   REMARKS
GOODLAND       MOCLDY    85  57  38 N6        29.92S
HILL CITY      CLEAR     91  57  31 S6        29.80R
NORTON         CLEAR     81  59  47 SW5       29.79S
PHILLIPSBURG   PTCLDY    84  64  51 SE18G30   29.79R
SMITH CENTER   CLEAR     73  66  78 E16       29.83F
HAYS           MOCLDY    82  63  51 S23G31    29.83R
RUSSELL        CLOUDY    85  63  47 S29G36    29.82F
CONCORDIA      TSTM      75  67  76 SE8       29.92R
SALINA         CLOUDY    84  64  50 S16G23    29.87F
TOPEKA         CLOUDY    73  66  78 SE8       29.93F



USA.gov is the U.S. government's official web portal to all federal, state and local government web resources and services.